Time,TemperatureF,DewpointF,PressureIn,WindDirection,WindDirectionDegrees,WindSpeedMPH,WindSpeedGustMPH,Humidity,HourlyPrecipIn,Conditions,Clouds,dailyrainin,SoftwareType,DateUTC
2013-08-28 00:00:00,71.2,67.5,29.78,ESE,112,0.0,-999.0,88,-99.99,,,0.00,Acu-Link.com,2013-08-28 04:00:00,
2013-08-28 00:15:00,70.9,67.2,29.77,ESE,112,0.0,-999.0,88,-99.99,,,0.00,Acu-Link.com,2013-08-28 04:15:00,
2013-08-28 00:30:00,70.7,67.0,29.78,ESE,112,0.0,-999.0,88,-99.99,,,0.00,Acu-Link.com,2013-08-28 04:30:00,
2013-08-28 00:46:00,70.5,66.8,29.78,ESE,112,0.0,-999.0,88,-99.99,,,0.00,Acu-Link.com,2013-08-28 04:46:00,
2013-08-28 01:01:00,70.3,66.9,29.78,ESE,112,0.0,-999.0,89,-99.99,,,0.00,Acu-Link.com,2013-08-28 05:01:00,
2013-08-28 01:16:00,70.2,66.8,29.78,ESE,112,0.0,-999.0,89,-99.99,,,0.00,Acu-Link.com,2013-08-28 05:16:00,
2013-08-28 01:32:00,70.0,66.6,29.79,ESE,112,0.0,-999.0,89,-99.99,,,0.00,Acu-Link.com,2013-08-28 05:32:00,
2013-08-28 01:47:00,70.0,66.6,29.78,ESE,112,0.0,-999.0,89,-99.99,,,0.00,Acu-Link.com,2013-08-28 05:47:00,
2013-08-28 02:02:00,70.0,66.6,29.78,ESE,112,0.0,-999.0,89,-99.99,,,0.00,Acu-Link.com,2013-08-28 06:02:00,
2013-08-28 02:18:00,70.0,66.6,29.77,ESE,112,0.0,-999.0,89,-99.99,,,0.00,Acu-Link.com,2013-08-28 06:18:00,
2013-08-28 02:33:00,70.0,66.6,29.77,ESE,112,0.0,-999.0,89,-99.99,,,0.00,Acu-Link.com,2013-08-28 06:33:00,
2013-08-28 02:48:00,70.0,66.6,29.77,ESE,112,0.0,-999.0,89,-99.99,,,0.00,Acu-Link.com,2013-08-28 06:48:00,
2013-08-28 03:04:00,69.8,66.4,29.77,ESE,112,0.0,-999.0,89,-99.99,,,0.00,Acu-Link.com,2013-08-28 07:04:00,
2013-08-28 03:19:00,69.8,66.4,29.76,ESE,112,0.0,-999.0,89,-99.99,,,0.00,Acu-Link.com,2013-08-28 07:19:00,
2013-08-28 03:34:00,69.6,66.2,29.76,ESE,112,0.0,-999.0,89,-99.99,,,0.00,Acu-Link.com,2013-08-28 07:34:00,
2013-08-28 03:50:00,69.4,66.0,29.76,ESE,112,0.0,-999.0,89,-99.99,,,0.00,Acu-Link.com,2013-08-28 07:50:00,
2013-08-28 04:05:00,69.3,65.9,29.75,ESE,112,0.0,-999.0,89,-99.99,,,0.00,Acu-Link.com,2013-08-28 08:05:00,
2013-08-28 04:20:00,69.3,65.9,29.75,ESE,112,0.0,-999.0,89,-99.99,,,0.00,Acu-Link.com,2013-08-28 08:20:00,
2013-08-28 04:35:00,69.1,66.0,29.75,ESE,112,0.0,-999.0,90,-99.99,,,0.00,Acu-Link.com,2013-08-28 08:35:00,
2013-08-28 04:50:00,69.1,66.0,29.75,ESE,112,0.0,-999.0,90,-99.99,,,0.00,Acu-Link.com,2013-08-28 08:50:00,
2013-08-28 05:05:00,69.1,66.0,29.76,ESE,112,0.0,-999.0,90,-99.99,,,0.00,Acu-Link.com,2013-08-28 09:05:00,
2013-08-28 05:20:00,69.1,66.0,29.76,ESE,112,0.0,-999.0,90,-99.99,,,0.00,Acu-Link.com,2013-08-28 09:20:00,
2013-08-28 05:36:00,69.1,66.4,29.76,ESE,112,0.0,-999.0,91,-99.99,,,0.01,Acu-Link.com,2013-08-28 09:36:00,
2013-08-28 05:51:00,68.9,66.5,29.77,ESE,112,0.0,-999.0,92,-99.99,,,0.02,Acu-Link.com,2013-08-28 09:51:00,
2013-08-28 06:06:00,68.9,66.5,29.77,ESE,112,0.0,-999.0,92,-99.99,,,0.02,Acu-Link.com,2013-08-28 10:06:00,
2013-08-28 06:22:00,68.9,66.5,29.77,ESE,112,0.0,-999.0,92,-99.99,,,0.02,Acu-Link.com,2013-08-28 10:22:00,
2013-08-28 06:37:00,68.9,66.5,29.77,ESE,112,0.0,-999.0,92,-99.99,,,0.03,Acu-Link.com,2013-08-28 10:37:00,
2013-08-28 06:52:00,68.9,67.7,29.76,ESE,112,0.0,-999.0,96,-99.99,,,0.05,Acu-Link.com,2013-08-28 10:52:00,
2013-08-28 07:08:00,68.9,67.7,29.76,ESE,112,0.0,-999.0,96,-99.99,,,0.05,Acu-Link.com,2013-08-28 11:08:00,
2013-08-28 07:23:00,68.9,67.7,29.77,ESE,112,0.0,-999.0,96,-99.99,,,0.05,Acu-Link.com,2013-08-28 11:23:00,
2013-08-28 07:38:00,69.1,67.9,29.77,ESE,112,0.0,-999.0,96,-99.99,,,0.05,Acu-Link.com,2013-08-28 11:38:00,
2013-08-28 07:54:00,69.1,67.9,29.77,ESE,112,0.0,-999.0,96,-99.99,,,0.05,Acu-Link.com,2013-08-28 11:54:00,
2013-08-28 08:09:00,69.3,68.1,29.77,ESE,112,0.0,-999.0,96,-99.99,,,0.05,Acu-Link.com,2013-08-28 12:09:00,
2013-08-28 08:24:00,69.8,68.6,29.77,WSW,247,0.0,-999.0,96,-99.99,,,0.05,Acu-Link.com,2013-08-28 12:24:00,
2013-08-28 08:39:00,69.8,68.6,29.77,WSW,247,0.0,-999.0,96,-99.99,,,0.05,Acu-Link.com,2013-08-28 12:39:00,
2013-08-28 08:55:00,70.2,69.0,29.78,WSW,247,0.0,-999.0,96,-99.99,,,0.05,Acu-Link.com,2013-08-28 12:55:00,
2013-08-28 09:10:00,70.5,69.3,29.77,WSW,247,0.0,-999.0,96,-99.99,,,0.05,Acu-Link.com,2013-08-28 13:10:00,
2013-08-28 09:25:00,71.1,69.9,29.77,South,180,0.0,-999.0,96,-99.99,,,0.05,Acu-Link.com,2013-08-28 13:25:00,
2013-08-28 09:41:00,71.4,69.9,29.77,South,180,0.0,-999.0,95,-99.99,,,0.05,Acu-Link.com,2013-08-28 13:41:00,
2013-08-28 09:56:00,71.8,70.3,29.77,South,180,0.0,-999.0,95,-99.99,,,0.05,Acu-Link.com,2013-08-28 13:56:00,
2013-08-28 10:11:00,71.8,70.3,29.77,West,270,0.0,-999.0,95,-99.99,,,0.05,Acu-Link.com,2013-08-28 14:11:00,
2013-08-28 10:27:00,72.1,70.3,29.76,West,270,0.0,-999.0,94,-99.99,,,0.05,Acu-Link.com,2013-08-28 14:27:00,
2013-08-28 10:42:00,73.0,71.2,29.76,ESE,112,0.0,-999.0,94,-99.99,,,0.05,Acu-Link.com,2013-08-28 14:42:00,
2013-08-28 10:57:00,73.6,71.4,29.77,ENE,67,0.0,-999.0,93,-99.99,,,0.05,Acu-Link.com,2013-08-28 14:57:00,
2013-08-28 11:13:00,73.8,71.3,29.76,ENE,67,0.0,-999.0,92,-99.99,,,0.05,Acu-Link.com,2013-08-28 15:13:00,
2013-08-28 11:28:00,73.8,71.3,29.76,ENE,67,0.0,-999.0,92,-99.99,,,0.05,Acu-Link.com,2013-08-28 15:28:00,
2013-08-28 11:44:00,73.9,71.4,29.76,ENE,67,0.0,-999.0,92,-99.99,,,0.05,Acu-Link.com,2013-08-28 15:44:00,
2013-08-28 11:59:00,74.3,72.1,29.76,ENE,67,0.0,-999.0,93,-99.99,,,0.06,Acu-Link.com,2013-08-28 15:59:00,
2013-08-28 12:14:00,74.3,72.1,29.75,ENE,67,0.0,-999.0,93,-99.99,,,0.06,Acu-Link.com,2013-08-28 16:14:00,
2013-08-28 12:30:00,74.3,72.1,29.75,ENE,67,0.0,-999.0,93,-99.99,,,0.06,Acu-Link.com,2013-08-28 16:30:00,
2013-08-28 12:45:00,74.7,72.5,29.74,ENE,67,0.0,-999.0,93,-99.99,,,0.06,Acu-Link.com,2013-08-28 16:45:00,
2013-08-28 13:00:00,75.0,72.8,29.75,ENE,67,0.0,-999.0,93,-99.99,,,0.06,Acu-Link.com,2013-08-28 17:00:00,
2013-08-28 13:16:00,75.9,73.4,29.74,ENE,67,0.0,-999.0,92,-99.99,,,0.06,Acu-Link.com,2013-08-28 17:16:00,
2013-08-28 13:31:00,76.5,73.7,29.73,ENE,67,0.0,-999.0,91,-99.99,,,0.06,Acu-Link.com,2013-08-28 17:31:00,
2013-08-28 13:47:00,77.2,74.0,29.73,WNW,292,0.0,-999.0,90,-99.99,,,0.06,Acu-Link.com,2013-08-28 17:47:00,
2013-08-28 14:02:00,77.5,73.7,29.73,NNE,22,0.0,-999.0,88,-99.99,,,0.06,Acu-Link.com,2013-08-28 18:02:00,
2013-08-28 14:17:00,77.9,74.0,29.73,West,270,0.0,-999.0,88,-99.99,,,0.06,Acu-Link.com,2013-08-28 18:17:00,
2013-08-28 14:33:00,77.9,73.7,29.72,WSW,247,0.0,-999.0,87,-99.99,,,0.06,Acu-Link.com,2013-08-28 18:33:00,
2013-08-28 14:48:00,78.1,73.9,29.72,ESE,112,0.0,-999.0,87,-99.99,,,0.06,Acu-Link.com,2013-08-28 18:48:00,
2013-08-28 15:03:00,79.3,73.3,29.72,SE,135,0.0,-999.0,82,-99.99,,,0.06,Acu-Link.com,2013-08-28 19:03:00,
2013-08-28 15:19:00,80.2,73.1,29.72,WSW,247,0.0,-999.0,79,-99.99,,,0.06,Acu-Link.com,2013-08-28 19:19:00,
2013-08-28 15:34:00,81.0,71.9,29.71,SW,225,0.0,-999.0,74,-99.99,,,0.06,Acu-Link.com,2013-08-28 19:34:00,
2013-08-28 15:49:00,79.2,72.1,29.71,South,180,0.0,-999.0,79,-99.99,,,0.06,Acu-Link.com,2013-08-28 19:49:00,
2013-08-28 16:05:00,79.9,72.0,29.71,SSW,202,0.0,-999.0,77,-99.99,,,0.06,Acu-Link.com,2013-08-28 20:05:00,
2013-08-28 16:20:00,79.3,72.2,29.71,SSW,202,0.0,-999.0,79,-99.99,,,0.06,Acu-Link.com,2013-08-28 20:20:00,
2013-08-28 16:35:00,79.7,71.4,29.71,South,180,1.1,-999.0,76,-99.99,,,0.06,Acu-Link.com,2013-08-28 20:35:00,
2013-08-28 16:50:00,79.0,71.2,29.72,WSW,247,2.2,-999.0,77,-99.99,,,0.06,Acu-Link.com,2013-08-28 20:50:00,
2013-08-28 17:06:00,78.8,71.7,29.71,WSW,247,0.0,-999.0,79,-99.99,,,0.06,Acu-Link.com,2013-08-28 21:06:00,
2013-08-28 17:21:00,79.2,71.3,29.71,West,270,0.0,-999.0,77,-99.99,,,0.06,Acu-Link.com,2013-08-28 21:21:00,
2013-08-28 17:36:00,79.5,72.0,29.72,WSW,247,0.0,-999.0,78,-99.99,,,0.06,Acu-Link.com,2013-08-28 21:36:00,
2013-08-28 17:52:00,79.3,71.1,29.71,SSE,157,0.0,-999.0,76,-99.99,,,0.06,Acu-Link.com,2013-08-28 21:52:00,
2013-08-28 18:07:00,79.7,71.4,29.71,West,270,0.0,-999.0,76,-99.99,,,0.06,Acu-Link.com,2013-08-28 22:07:00,
2013-08-28 18:22:00,79.7,71.4,29.71,SSW,202,0.0,-999.0,76,-99.99,,,0.06,Acu-Link.com,2013-08-28 22:22:00,
2013-08-28 18:38:00,78.8,72.5,29.71,SSE,157,0.0,-999.0,81,-99.99,,,0.06,Acu-Link.com,2013-08-28 22:38:00,
2013-08-28 18:53:00,78.6,71.9,29.72,SSE,157,0.0,-999.0,80,-99.99,,,0.06,Acu-Link.com,2013-08-28 22:53:00,
2013-08-28 19:08:00,78.4,72.4,29.72,SSE,157,0.0,-999.0,82,-99.99,,,0.06,Acu-Link.com,2013-08-28 23:08:00,
2013-08-28 19:24:00,77.9,71.9,29.73,East,90,0.0,-999.0,82,-99.99,,,0.06,Acu-Link.com,2013-08-28 23:24:00,
2013-08-28 19:39:00,77.2,71.6,29.73,East,90,0.0,-999.0,83,-99.99,,,0.06,Acu-Link.com,2013-08-28 23:39:00,
2013-08-28 19:54:00,76.3,71.4,29.74,East,90,0.0,-999.0,85,-99.99,,,0.06,Acu-Link.com,2013-08-28 23:54:00,
2013-08-28 20:10:00,75.7,70.9,29.74,East,90,0.0,-999.0,85,-99.99,,,0.06,Acu-Link.com,2013-08-29 00:10:00,
2013-08-28 20:25:00,75.2,70.7,29.75,East,90,0.0,-999.0,86,-99.99,,,0.06,Acu-Link.com,2013-08-29 00:25:00,
2013-08-28 20:40:00,74.7,70.2,29.75,East,90,0.0,-999.0,86,-99.99,,,0.06,Acu-Link.com,2013-08-29 00:40:00,
2013-08-28 20:55:00,74.3,70.2,29.75,East,90,0.0,-999.0,87,-99.99,,,0.06,Acu-Link.com,2013-08-29 00:55:00,
2013-08-28 21:11:00,73.9,70.1,29.75,East,90,0.0,-999.0,88,-99.99,,,0.06,Acu-Link.com,2013-08-29 01:11:00,
2013-08-28 21:26:00,73.8,70.0,29.75,East,90,0.0,-999.0,88,-99.99,,,0.06,Acu-Link.com,2013-08-29 01:26:00,
2013-08-28 21:41:00,73.0,69.2,29.75,East,90,0.0,-999.0,88,-99.99,,,0.06,Acu-Link.com,2013-08-29 01:41:00,
2013-08-28 21:57:00,72.5,69.1,29.76,East,90,0.0,-999.0,89,-99.99,,,0.06,Acu-Link.com,2013-08-29 01:57:00,
2013-08-28 22:12:00,72.1,68.7,29.76,East,90,0.0,-999.0,89,-99.99,,,0.06,Acu-Link.com,2013-08-29 02:12:00,
2013-08-28 22:27:00,71.8,68.7,29.77,East,90,0.0,-999.0,90,-99.99,,,0.06,Acu-Link.com,2013-08-29 02:27:00,
2013-08-28 22:43:00,71.6,68.5,29.77,East,90,0.0,-999.0,90,-99.99,,,0.06,Acu-Link.com,2013-08-29 02:43:00,
2013-08-28 22:58:00,71.6,68.5,29.78,East,90,0.0,-999.0,90,-99.99,,,0.06,Acu-Link.com,2013-08-29 02:58:00,
2013-08-28 23:13:00,71.6,68.5,29.78,East,90,0.0,-999.0,90,-99.99,,,0.06,Acu-Link.com,2013-08-29 03:13:00,
2013-08-28 23:29:00,71.4,68.3,29.78,East,90,0.0,-999.0,90,-99.99,,,0.06,Acu-Link.com,2013-08-29 03:29:00,
2013-08-28 23:44:00,71.1,68.0,29.78,East,90,0.0,-999.0,90,-99.99,,,0.06,Acu-Link.com,2013-08-29 03:44:00,
2013-08-28 23:59:00,71.1,68.3,29.78,East,90,0.0,-999.0,91,-99.99,,,0.06,Acu-Link.com,2013-08-29 03:59:00,